Total_Precipitation_Accumulation
0.02 0.02 0.02 0.02 0.02 0.01 0.01 0.01 0.00 0.00 0.00 0.00 0.00 0.00 0.00 0.00 0.00 0.00 0.00 0.00 0.00 0.00 0.00 0.00 0.00 0.00 0.00 0.00 0.00 0.00 0.00 0.01 0.01 0.01 0.00 0.00 0.01 0.01 0.01 0.00 0.01 0.01 0.00 0.00 0.00 0.00 0.02 0.05 0.06 0.06 0.07 0.09 0.13 0.18 0.22 0.30 0.35 0.29 0.19 0.15 0.20 0.22 0.20 0.19 0.18 0.18 0.23 0.29 0.29 0.25 0.20 0.14 0.10 0.09 0.09 0.11 0.12 0.12 0.13 0.17 0.22 0.30 0.41 0.48 0.57
0.03 0.03 0.03 0.02 0.02 0.01 0.01 0.00 0.00 0.00 0.00 0.00 0.00 0.00 0.00 0.00 0.00 0.00 0.00 0.00 0.00 0.00 0.00 0.00 0.00 0.00 0.01 0.00 0.00 0.01 0.01 0.02 0.01 0.01 0.01 0.00 0.01 0.01 0.01 0.01 0.02 0.02 0.02 0.06 0.06 0.01 0.02 0.03 0.04 0.07 0.10 0.10 0.15 0.18 0.19 0.23 0.29 0.32 0.29 0.24 0.19 0.19 0.18 0.17 0.19 0.21 0.36 0.31 0.26 0.27 0.22 0.18 0.16 0.15 0.11 0.08 0.08 0.10 0.12 0.12 0.16 0.22 0.25 0.33 0.46
0.04 0.03 0.03 0.02 0.02 0.01 0.01 0.01 0.00 0.00 0.00 0.00 0.00 0.00 0.00 0.00 0.00 0.00 0.00 0.00 0.00 0.00 0.00 0.00 0.00 0.00 0.00 0.00 0.00 0.01 0.01 0.02 0.03 0.03 0.01 0.01 0.01 0.01 0.00 0.01 0.03 0.04 0.03 0.04 0.05 0.04 0.06 0.10 0.13 0.09 0.11 0.08 0.10 0.16 0.22 0.21 0.22 0.29 0.34 0.33 0.28 0.22 0.21 0.15 0.19 0.23 0.26 0.22 0.17 0.19 0.23 0.21 0.17 0.14 0.13 0.10 0.07 0.06 0.08 0.11 0.12 0.16 0.20 0.22 0.28
0.04 0.03 0.03 0.02 0.02 0.02 0.01 0.01 0.01 0.00 0.00 0.00 0.00 0.00 0.00 0.00 0.00 0.00 0.00 0.00 0.00 0.00 0.00 0.00 0.00 0.00 0.00 0.00 0.00 0.00 0.00 0.00 0.01 0.01 0.01 0.02 0.03 0.04 0.04 0.08 0.11 0.13 0.10 0.11 0.05 0.05 0.14 0.08 0.06 0.15 0.07 0.08 0.08 0.10 0.14 0.22 0.28 0.23 0.27 0.33 0.36 0.31 0.25 0.22 0.15 0.16 0.22 0.26 0.28 0.31 0.31 0.20 0.21 0.15 0.10 0.09 0.08 0.05 0.05 0.06 0.09 0.12 0.15 0.19 0.23
0.04 0.03 0.03 0.03 0.02 0.02 0.01 0.01 0.01 0.00 0.00 0.00 0.00 0.00 0.00 0.00 0.00 0.00 0.00 0.00 0.00 0.00 0.00 0.00 0.00 0.00 0.00 0.00 0.00 0.00 0.00 0.00 0.00 0.00 0.01 0.02 0.03 0.06 0.05 0.06 0.07 0.11 0.04 0.09 0.08 0.11 0.13 0.05 0.09 0.13 0.15 0.09 0.11 0.09 0.10 0.12 0.18 0.28 0.30 0.30 0.32 0.37 0.32 0.25 0.21 0.15 0.17 0.21 0.33 0.28 0.37 0.37 0.25 0.20 0.15 0.07 0.04 0.05 0.05 0.04 0.05 0.07 0.11 0.15 0.20
0.03 0.03 0.03 0.03 0.02 0.02 0.01 0.01 0.00 0.00 0.00 0.00 0.00 0.00 0.01 0.01 0.01 0.01 0.01 0.01 0.01 0.01 0.00 0.00 0.00 0.00 0.00 0.00 0.00 0.00 0.01 0.01 0.01 0.00 0.00 0.00 0.00 0.01 0.01 0.05 0.05 0.10 0.14 0.08 0.05 0.08 0.09 0.13 0.13 0.06 0.07 0.05 0.12 0.09 0.10 0.13 0.11 0.15 0.25 0.36 0.37 0.34 0.34 0.29 0.27 0.21 0.17 0.17 0.25 0.32 0.26 0.24 0.21 0.14 0.07 0.11 0.08 0.04 0.03 0.04 0.04 0.05 0.05 0.09 0.17
0.03 0.03 0.03 0.02 0.02 0.01 0.01 0.01 0.01 0.01 0.01 0.01 0.02 0.02 0.03 0.03 0.02 0.02 0.02 0.01 0.01 0.01 0.01 0.00 0.00 0.01 0.01 0.01 0.01 0.02 0.02 0.02 0.01 0.00 0.00 0.00 0.00 0.00 0.00 0.00 0.00 0.01 0.04 0.08 0.08 0.13 0.12 0.13 0.09 0.07 0.08 0.11 0.10 0.08 0.08 0.10 0.14 0.24 0.19 0.23 0.37 0.41 0.40 0.38 0.28 0.22 0.19 0.20 0.22 0.25 0.27 0.22 0.18 0.12 0.13 0.07 0.07 0.07 0.09 0.05 0.06 0.05 0.05 0.06 0.09
0.03 0.03 0.02 0.02 0.01 0.01 0.01 0.01 0.02 0.03 0.03 0.04 0.04 0.04 0.04 0.03 0.03 0.02 0.02 0.01 0.01 0.01 0.00 0.01 0.02 0.01 0.02 0.02 0.02 0.03 0.02 0.01 0.01 0.00 0.00 0.01 0.01 0.00 0.00 0.00 0.00 0.01 0.01 0.01 0.01 0.04 0.10 0.12 0.18 0.15 0.10 0.08 0.07 0.06 0.09 0.08 0.13 0.09 0.12 0.18 0.29 0.42 0.42 0.47 0.34 0.21 0.22 0.23 0.21 0.24 0.24 0.20 0.18 0.15 0.13 0.13 0.15 0.07 0.06 0.05 0.05 0.08 0.05 0.06 0.06
0.02 0.02 0.02 0.02 0.02 0.03 0.03 0.04 0.05 0.06 0.06 0.06 0.05 0.04 0.04 0.03 0.03 0.02 0.01 0.01 0.00 0.00 0.01 0.01 0.04 0.03 0.04 0.02 0.03 0.02 0.01 0.01 0.01 0.01 0.01 0.00 0.00 0.01 0.00 0.00 0.00 0.00 0.00 0.00 0.03 0.03 0.02 0.03 0.04 0.09 0.12 0.14 0.14 0.13 0.10 0.08 0.08 0.08 0.13 0.12 0.18 0.22 0.27 0.39 0.44 0.35 0.22 0.19 0.16 0.20 0.25 0.27 0.23 0.21 0.13 0.08 0.15 0.15 0.07 0.03 0.06 0.05 0.03 0.07 0.05
0.02 0.02 0.03 0.04 0.05 0.06 0.06 0.07 0.07 0.07 0.06 0.05 0.05 0.04 0.03 0.02 0.02 0.01 0.01 0.00 0.00 0.01 0.08 0.02 0.02 0.02 0.02 0.02 0.02 0.01 0.00 0.00 0.00 0.00 0.01 0.01 0.01 0.01 0.01 0.01 0.01 0.01 0.01 0.00 0.00 0.01 0.02 0.01 0.02 0.02 0.03 0.05 0.11 0.17 0.16 0.13 0.12 0.11 0.10 0.11 0.14 0.19 0.22 0.29 0.34 0.37 0.29 0.21 0.14 0.15 0.20 0.25 0.30 0.30 0.26 0.19 0.12 0.09 0.11 0.06 0.04 0.05 0.05 0.04 0.03
0.03 0.04 0.05 0.06 0.07 0.08 0.08 0.09 0.08 0.07 0.06 0.05 0.04 0.03 0.03 0.03 0.02 0.01 0.01 0.00 0.01 0.02 0.02 0.03 0.01 0.05 0.02 0.01 0.00 0.00 0.00 0.00 0.00 0.00 0.00 0.01 0.01 0.01 0.01 0.01 0.00 0.00 0.01 0.01 0.01 0.01 0.01 0.01 0.00 0.00 0.01 0.01 0.02 0.03 0.09 0.18 0.17 0.15 0.15 0.15 0.17 0.17 0.17 0.19 0.25 0.29 0.31 0.29 0.20 0.17 0.15 0.16 0.22 0.29 0.26 0.17 0.14 0.10 0.06 0.05 0.04 0.04 0.09 0.06 0.03
0.05 0.07 0.08 0.08 0.10 0.10 0.10 0.10 0.09 0.08 0.06 0.05 0.04 0.04 0.03 0.02 0.02 0.01 0.00 0.04 0.03 0.04 0.01 0.01 0.01 0.01 0.01 0.01 0.01 0.00 0.00 0.00 0.00 0.00 0.00 0.00 0.00 0.00 0.01 0.01 0.01 0.01 0.01 0.01 0.01 0.01 0.01 0.02 0.01 0.01 0.01 0.01 0.00 0.01 0.01 0.03 0.07 0.13 0.20 0.20 0.20 0.20 0.19 0.20 0.23 0.24 0.25 0.27 0.27 0.19 0.15 0.11 0.12 0.16 0.20 0.20 0.16 0.11 0.07 0.05 0.03 0.02 0.04 0.08 0.09
0.09 0.11 0.12 0.12 0.13 0.13 0.12 0.11 0.10 0.08 0.06 0.05 0.04 0.03 0.02 0.01 0.01 0.01 0.01 0.01 0.03 0.02 0.02 0.02 0.01 0.01 0.01 0.01 0.01 0.01 0.01 0.01 0.00 0.01 0.01 0.01 0.01 0.01 0.01 0.02 0.01 0.02 0.01 0.02 0.02 0.02 0.02 0.08 0.03 0.04 0.03 0.02 0.01 0.01 0.01 0.01 0.02 0.04 0.08 0.16 0.20 0.20 0.22 0.25 0.26 0.26 0.27 0.25 0.25 0.22 0.18 0.14 0.11 0.10 0.12 0.16 0.22 0.20 0.12 0.10 0.05 0.02 0.03 0.03 0.08
0.13 0.14 0.15 0.16 0.16 0.15 0.13 0.11 0.10 0.07 0.06 0.04 0.03 0.03 0.02 0.01 0.01 0.01 0.01 0.02 0.03 0.02 0.02 0.01 0.01 0.02 0.02 0.02 0.02 0.01 0.01 0.01 0.01 0.01 0.01 0.01 0.03 0.02 0.04 0.03 0.03 0.03 0.02 0.02 0.01 0.02 0.02 0.03 0.04 0.04 0.03 0.03 0.04 0.04 0.03 0.03 0.03 0.02 0.02 0.04 0.08 0.13 0.15 0.19 0.23 0.24 0.24 0.25 0.25 0.25 0.24 0.23 0.17 0.10 0.09 0.09 0.15 0.20 0.23 0.17 0.11 0.05 0.02 0.03 0.02
0.18 0.19 0.19 0.18 0.16 0.14 0.12 0.11 0.09 0.07 0.04 0.03 0.02 0.02 0.02 0.07 0.06 0.01 0.01 0.02 0.03 0.02 0.01 0.01 0.01 0.01 0.01 0.01 0.01 0.01 0.01 0.01 0.02 0.05 0.03 0.04 0.04 0.04 0.03 0.03 0.03 0.02 0.03 0.01 0.01 0.02 0.01 0.02 0.03 0.04 0.05 0.06 0.06 0.07 0.08 0.07 0.07 0.07 0.06 0.03 0.03 0.04 0.09 0.14 0.18 0.20 0.24 0.26 0.28 0.28 0.24 0.21 0.21 0.16 0.10 0.09 0.10 0.15 0.16 0.14 0.14 0.15 0.07 0.04 0.02
0.20 0.20 0.18 0.16 0.13 0.12 0.11 0.09 0.06 0.05 0.03 0.02 0.02 0.02 0.03 0.04 0.01 0.01 0.02 0.03 0.02 0.01 0.01 0.01 0.02 0.02 0.02 0.02 0.01 0.02 0.03 0.03 0.04 0.04 0.04 0.03 0.03 0.07 0.05 0.07 0.07 0.02 0.02 0.02 0.01 0.02 0.06 0.02 0.02 0.02 0.03 0.04 0.05 0.05 0.06 0.09 0.11 0.13 0.14 0.11 0.07 0.04 0.03 0.06 0.11 0.13 0.16 0.20 0.24 0.27 0.28 0.25 0.18 0.16 0.15 0.13 0.11 0.12 0.12 0.11 0.11 0.19 0.16 0.10 0.05
0.21 0.18 0.16 0.14 0.12 0.10 0.08 0.06 0.04 0.03 0.02 0.03 0.03 0.02 0.01 0.01 0.01 0.02 0.03 0.01 0.01 0.01 0.01 0.02 0.02 0.02 0.03 0.02 0.02 0.03 0.06 0.09 0.05 0.06 0.04 0.06 0.06 0.05 0.03 0.06 0.02 0.02 0.02 0.02 0.02 0.02 0.08 0.06 0.03 0.01 0.01 0.02 0.03 0.04 0.04 0.05 0.05 0.08 0.11 0.14 0.15 0.11 0.07 0.07 0.06 0.09 0.10 0.12 0.17 0.24 0.29 0.28 0.21 0.15 0.14 0.16 0.16 0.15 0.15 0.14 0.15 0.15 0.17 0.17 0.12
0.18 0.16 0.14 0.12 0.10 0.08 0.05 0.03 0.02 0.01 0.02 0.03 0.02 0.01 0.00 0.01 0.01 0.02 0.02 0.02 0.02 0.02 0.02 0.02 0.05 0.03 0.02 0.03 0.06 0.07 0.07 0.05 0.03 0.15 0.12 0.05 0.03 0.06 0.02 0.03 0.05 0.02 0.02 0.03 0.03 0.02 0.02 0.03 0.04 0.04 0.10 0.02 0.01 0.02 0.03 0.03 0.04 0.04 0.04 0.05 0.06 0.09 0.14 0.13 0.10 0.09 0.09 0.09 0.11 0.16 0.25 0.28 0.24 0.21 0.18 0.15 0.17 0.19 0.19 0.19 0.18 0.19 0.16 0.20 0.17
0.16 0.14 0.11 0.09 0.06 0.03 0.02 0.01 0.01 0.02 0.03 0.03 0.01 0.01 0.01 0.01 0.02 0.02 0.02 0.02 0.02 0.02 0.02 0.03 0.02 0.03 0.04 0.06 0.05 0.03 0.03 0.09 0.11 0.15 0.07 0.10 0.08 0.05 0.03 0.05 0.03 0.03 0.04 0.04 0.06 0.03 0.03 0.02 0.02 0.01 0.01 0.01 0.01 0.01 0.01 0.02 0.03 0.03 0.03 0.03 0.03 0.03 0.05 0.11 0.12 0.10 0.09 0.09 0.12 0.13 0.15 0.20 0.21 0.22 0.21 0.18 0.17 0.20 0.23 0.22 0.21 0.20 0.19 0.20 0.21
0.14 0.11 0.07 0.04 0.02 0.01 0.00 0.01 0.01 0.03 0.03 0.01 0.01 0.01 0.01 0.02 0.03 0.02 0.02 0.01 0.02 0.02 0.03 0.06 0.04 0.05 0.04 0.03 0.03 0.09 0.12 0.12 0.07 0.03 0.07 0.06 0.05 0.04 0.04 0.04 0.05 0.04 0.05 0.05 0.06 0.04 0.04 0.03 0.03 0.02 0.02 0.01 0.01 0.02 0.01 0.02 0.03 0.03 0.03 0.03 0.03 0.02 0.03 0.03 0.03 0.05 0.09 0.11 0.12 0.13 0.13 0.13 0.14 0.17 0.20 0.21 0.21 0.20 0.20 0.23 0.24 0.24 0.23 0.21 0.25
0.07 0.03 0.02 0.01 0.01 0.01 0.01 0.01 0.03 0.03 0.01 0.01 0.01 0.01 0.03 0.03 0.02 0.02 0.01 0.02 0.03 0.06 0.03 0.02 0.03 0.03 0.04 0.05 0.07 0.20 0.08 0.09 0.07 0.03 0.05 0.09 0.05 0.04 0.04 0.05 0.06 0.07 0.09 0.07 0.07 0.06 0.05 0.04 0.03 0.03 0.02 0.02 0.02 0.02 0.02 0.02 0.02 0.02 0.02 0.03 0.03 0.03 0.03 0.02 0.02 0.02 0.02 0.05 0.11 0.13 0.12 0.10 0.11 0.18 0.21 0.19 0.20 0.21 0.22 0.23 0.22 0.23 0.29 0.26 0.25
0.02 0.01 0.01 0.01 0.01 0.01 0.02 0.03 0.03 0.01 0.01 0.01 0.01 0.02 0.04 0.03 0.02 0.01 0.02 0.03 0.03 0.05 0.04 0.03 0.02 0.02 0.04 0.07 0.06 0.13 0.03 0.11 0.04 0.05 0.07 0.05 0.04 0.04 0.05 0.09 0.08 0.08 0.08 0.09 0.08 0.06 0.06 0.05 0.06 0.07 0.04 0.04 0.03 0.10 0.04 0.02 0.02 0.02 0.02 0.02 0.03 0.03 0.03 0.03 0.02 0.02 0.02 0.02 0.03 0.05 0.08 0.08 0.09 0.18 0.20 0.22 0.20 0.22 0.23 0.27 0.26 0.24 0.23 0.23 0.21
0.01 0.01 0.01 0.01 0.01 0.01 0.03 0.02 0.02 0.01 0.01 0.01 0.01 0.02 0.03 0.02 0.02 0.03 0.04 0.03 0.03 0.03 0.02 0.02 0.03 0.05 0.04 0.07 0.09 0.05 0.08 0.06 0.03 0.04 0.06 0.05 0.04 0.07 0.09 0.16 0.14 0.13 0.10 0.09 0.08 0.06 0.06 0.05 0.06 0.06 0.15 0.08 0.05 0.05 0.03 0.03 0.04 0.03 0.04 0.03 0.03 0.04 0.04 0.03 0.03 0.02 0.02 0.02 0.03 0.03 0.04 0.04 0.06 0.14 0.17 0.18 0.17 0.21 0.22 0.31 0.24 0.24 0.22 0.18 0.15
0.01 0.01 0.01 0.01 0.01 0.02 0.03 0.02 0.01 0.01 0.01 0.01 0.02 0.03 0.03 0.03 0.04 0.04 0.03 0.02 0.02 0.02 0.02 0.02 0.03 0.03 0.03 0.02 0.03 0.03 0.04 0.05 0.04 0.04 0.05 0.07 0.10 0.12 0.14 0.14 0.13 0.12 0.11 0.09 0.07 0.06 0.05 0.05 0.05 0.06 0.06 0.07 0.08 0.07 0.11 0.11 0.05 0.07 0.05 0.05 0.04 0.04 0.04 0.04 0.05 0.04 0.04 0.04 0.04 0.04 0.04 0.03 0.04 0.06 0.09 0.21 0.18 0.17 0.22 0.23 0.23 0.21 0.20 0.18 0.15
0.01 0.01 0.01 0.01 0.03 0.03 0.02 0.02 0.02 0.01 0.01 0.02 0.04 0.04 0.06 0.05 0.03 0.03 0.02 0.02 0.02 0.02 0.02 0.02 0.02 0.03 0.05 0.03 0.05 0.05 0.07 0.03 0.04 0.05 0.08 0.10 0.12 0.14 0.14 0.14 0.12 0.10 0.08 0.07 0.06 0.06 0.05 0.05 0.06 0.06 0.06 0.06 0.05 0.06 0.07 0.07 0.06 0.05 0.06 0.06 0.07 0.07 0.11 0.09 0.08 0.05 0.05 0.06 0.05 0.05 0.04 0.05 0.06 0.08 0.08 0.07 0.09 0.13 0.16 0.17 0.16 0.17 0.20 0.21 0.21
0.01 0.01 0.02 0.03 0.04 0.02 0.02 0.03 0.03 0.02 0.02 0.03 0.04 0.06 0.04 0.03 0.02 0.02 0.02 0.02 0.02 0.03 0.03 0.03 0.02 0.03 0.05 0.15 0.16 0.10 0.07 0.03 0.05 0.07 0.11 0.14 0.15 0.15 0.14 0.11 0.08 0.08 0.07 0.06 0.06 0.07 0.06 0.07 0.08 0.07 0.07 0.08 0.07 0.07 0.06 0.07 0.06 0.06 0.06 0.06 0.06 0.06 0.06 0.07 0.07 0.07 0.07 0.09 0.09 0.08 0.07 0.07 0.08 0.10 0.09 0.08 0.08 0.08 0.10 0.15 0.15 0.16 0.15 0.18 0.24
0.01 0.03 0.04 0.03 0.02 0.02 0.04 0.03 0.02 0.03 0.03 0.04 0.04 0.03 0.03 0.02 0.02 0.01 0.01 0.02 0.02 0.03 0.09 0.04 0.03 0.05 0.20 0.08 0.08 0.04 0.04 0.06 0.09 0.13 0.14 0.15 0.15 0.13 0.10 0.09 0.07 0.08 0.08 0.08 0.08 0.08 0.08 0.07 0.07 0.06 0.06 0.06 0.06 0.05 0.05 0.06 0.06 0.07 0.07 0.06 0.06 0.06 0.05 0.06 0.06 0.06 0.07 0.07 0.08 0.09 0.10 0.16 0.11 0.10 0.12 0.09 0.10 0.12 0.14 0.13 0.11 0.12 0.14 0.18 0.24
0.02 0.03 0.04 0.03 0.02 0.03 0.03 0.03 0.03 0.03 0.05 0.05 0.03 0.02 0.02 0.02 0.02 0.02 0.01 0.04 0.02 0.07 0.05 0.12 0.08 0.08 0.08 0.07 0.04 0.05 0.07 0.10 0.12 0.13 0.14 0.14 0.12 0.10 0.10 0.09 0.09 0.09 0.09 0.08 0.09 0.08 0.06 0.06 0.06 0.06 0.06 0.06 0.06 0.06 0.06 0.06 0.06 0.06 0.07 0.07 0.06 0.06 0.06 0.05 0.05 0.05 0.06 0.06 0.07 0.08 0.10 0.10 0.10 0.12 0.13 0.12 0.12 0.14 0.12 0.15 0.13 0.15 0.17 0.19 0.22
0.04 0.04 0.07 0.02 0.03 0.03 0.04 0.05 0.03 0.05 0.05 0.04 0.03 0.03 0.03 0.02 0.01 0.01 0.09 0.15 0.05 0.06 0.06 0.06 0.07 0.05 0.05 0.06 0.07 0.09 0.12 0.14 0.14 0.14 0.12 0.10 0.11 0.11 0.12 0.11 0.10 0.10 0.09 0.08 0.08 0.09 0.09 0.08 0.07 0.08 0.08 0.10 0.11 0.10 0.09 0.09 0.07 0.06 0.06 0.07 0.08 0.08 0.08 0.08 0.07 0.06 0.06 0.06 0.06 0.08 0.09 0.10 0.10 0.11 0.12 0.15 0.13 0.14 0.22 0.16 0.12 0.13 0.18 0.21 0.25
0.05 0.03 0.04 0.03 0.03 0.04 0.05 0.04 0.06 0.07 0.06 0.04 0.05 0.05 0.04 0.03 0.02 0.05 0.03 0.03 0.05 0.04 0.05 0.07 0.05 0.06 0.08 0.10 0.13 0.15 0.16 0.15 0.11 0.10 0.10 0.12 0.13 0.13 0.12 0.13 0.13 0.11 0.10 0.10 0.10 0.10 0.11 0.11 0.10 0.10 0.10 0.10 0.10 0.09 0.08 0.08 0.10 0.12 0.16 0.22 0.23 0.20 0.16 0.14 0.13 0.12 0.10 0.08 0.07 0.06 0.07 0.08 0.09 0.11 0.12 0.16 0.19 0.21 0.18 0.17 0.21 0.19 0.18 0.24 0.23
0.05 0.05 0.05 0.04 0.04 0.05 0.05 0.07 0.09 0.07 0.06 0.08 0.05 0.03 0.02 0.02 0.02 0.07 0.09 0.03 0.04 0.05 0.06 0.07 0.08 0.10 0.13 0.17 0.18 0.16 0.12 0.10 0.09 0.11 0.13 0.14 0.14 0.14 0.14 0.14 0.13 0.12 0.12 0.11 0.12 0.14 0.13 0.14 0.14 0.14 0.13 0.12 0.12 0.11 0.10 0.13 0.24 0.42 0.39 0.40 0.37 0.26 0.22 0.21 0.20 0.19 0.17 0.13 0.11 0.09 0.08 0.08 0.10 0.12 0.14 0.19 0.20 0.21 0.26 0.34 0.26 0.23 0.29 0.32 0.30
0.07 0.06 0.05 0.05 0.06 0.06 0.08 0.09 0.08 0.07 0.08 0.05 0.04 0.03 0.03 0.03 0.03 0.09 0.04 0.05 0.08 0.07 0.08 0.11 0.14 0.18 0.18 0.17 0.13 0.11 0.10 0.11 0.12 0.15 0.15 0.14 0.14 0.14 0.14 0.14 0.14 0.13 0.12 0.13 0.14 0.14 0.14 0.14 0.14 0.14 0.13 0.12 0.11 0.10 0.16 0.23 0.33 0.45 0.60 0.59 0.52 0.43 0.33 0.29 0.25 0.23 0.21 0.18 0.16 0.14 0.12 0.11 0.11 0.12 0.13 0.14 0.17 0.21 0.25 0.29 0.39 0.50 0.53 0.66 0.64
0.08 0.06 0.07 0.07 0.09 0.08 0.09 0.08 0.07 0.06 0.13 0.07 0.03 0.04 0.04 0.04 0.04 0.06 0.05 0.07 0.08 0.10 0.14 0.18 0.18 0.16 0.13 0.10 0.10 0.10 0.12 0.14 0.15 0.15 0.15 0.14 0.14 0.14 0.13 0.14 0.15 0.14 0.15 0.16 0.16 0.17 0.18 0.17 0.19 0.19 0.15 0.15 0.13 0.12 0.16 0.22 0.34 0.56 0.70 0.90 0.83 0.61 0.49 0.38 0.32 0.25 0.22 0.20 0.18 0.18 0.17 0.15 0.13 0.20 0.17 0.17 0.17 0.19 0.20 0.26 0.31 0.36 0.48 0.77 0.72
0.09 0.09 0.09 0.08 0.07 0.09 0.10 0.08 0.08 0.09 0.11 0.03 0.03 0.04 0.03 0.05 0.04 0.06 0.07 0.09 0.12 0.15 0.16 0.15 0.13 0.11 0.10 0.10 0.10 0.12 0.14 0.14 0.13 0.13 0.14 0.15 0.15 0.15 0.16 0.17 0.19 0.19 0.20 0.20 0.18 0.20 0.22 0.23 0.23 0.23 0.22 0.18 0.15 0.13 0.17 0.26 0.44 0.64 0.79 0.98 0.81 0.66 0.49 0.38 0.30 0.24 0.21 0.20 0.19 0.19 0.19 0.16 0.14 0.14 0.16 0.17 0.18 0.17 0.16 0.20 0.24 0.27 0.30 0.32 0.51
0.11 0.10 0.09 0.08 0.11 0.11 0.09 0.08 0.11 0.09 0.10 0.08 0.04 0.04 0.06 0.05 0.07 0.09 0.10 0.13 0.16 0.16 0.14 0.12 0.12 0.11 0.10 0.10 0.12 0.14 0.14 0.13 0.12 0.13 0.15 0.15 0.16 0.19 0.19 0.21 0.23 0.24 0.25 0.25 0.28 0.27 0.25 0.26 0.27 0.28 0.29 0.25 0.20 0.18 0.23 0.35 0.53 0.79 1.02 0.91 0.77 0.78 0.60 0.37 0.26 0.21 0.16 0.15 0.16 0.18 0.19 0.17 0.15 0.16 0.15 0.15 0.17 0.19 0.19 0.21 0.23 0.23 0.22 0.21 0.20
0.11 0.09 0.08 0.10 0.13 0.11 0.10 0.11 0.06 0.12 0.09 0.06 0.05 0.07 0.08 0.10 0.11 0.13 0.16 0.17 0.14 0.12 0.11 0.12 0.13 0.11 0.10 0.12 0.14 0.14 0.14 0.12 0.12 0.14 0.15 0.16 0.17 0.18 0.20 0.20 0.23 0.22 0.25 0.26 0.26 0.31 0.28 0.26 0.23 0.26 0.31 0.29 0.23 0.26 0.35 0.45 0.68 0.86 1.06 1.14 0.72 0.62 0.47 0.36 0.28 0.23 0.20 0.19 0.25 0.35 0.22 0.23 0.22 0.21 0.18 0.32 0.28 0.25 0.29 0.34 0.35 0.31 0.27 0.22 0.19
0.06 0.06 0.09 0.11 0.09 0.09 0.09 0.06 0.12 0.09 0.06 0.06 0.06 0.07 0.11 0.13 0.14 0.15 0.14 0.11 0.10 0.11 0.13 0.13 0.12 0.10 0.12 0.13 0.13 0.14 0.14 0.13 0.14 0.16 0.17 0.18 0.20 0.21 0.21 0.21 0.26 0.25 0.26 0.24 0.20 0.19 0.16 0.16 0.18 0.18 0.20 0.17 0.14 0.16 0.25 0.47 0.80 1.05 1.31 0.93 0.76 0.68 0.54 0.40 0.29 0.32 0.26 0.22 0.23 0.24 0.25 0.23 0.23 0.23 0.23 0.33 0.45 0.47 0.42 0.37 0.35 0.34 0.32 0.30 0.24
0.04 0.06 0.10 0.11 0.09 0.08 0.05 0.06 0.08 0.06 0.06 0.06 0.07 0.10 0.11 0.11 0.11 0.10 0.09 0.10 0.12 0.14 0.13 0.12 0.11 0.12 0.13 0.13 0.13 0.14 0.16 0.16 0.17 0.18 0.19 0.20 0.21 0.21 0.22 0.22 0.26 0.24 0.21 0.15 0.13 0.13 0.13 0.16 0.15 0.13 0.12 0.13 0.11 0.10 0.17 0.28 0.53 0.80 1.14 0.92 0.77 0.68 0.53 0.40 0.32 0.31 0.28 0.26 0.24 0.22 0.26 0.27 0.27 0.23 0.25 0.39 0.60 0.64 0.70 0.51 0.39 0.33 0.29 0.27 0.22
0.05 0.11 0.11 0.09 0.09 0.06 0.04 0.07 0.06 0.08 0.07 0.07 0.08 0.09 0.09 0.10 0.09 0.09 0.11 0.14 0.16 0.14 0.13 0.12 0.13 0.13 0.12 0.12 0.13 0.14 0.16 0.17 0.18 0.18 0.20 0.23 0.24 0.25 0.22 0.19 0.20 0.19 0.17 0.14 0.13 0.14 0.11 0.10 0.11 0.12 0.11 0.18 0.19 0.17 0.16 0.24 0.43 0.62 0.77 0.72 0.75 0.70 0.58 0.46 0.40 0.36 0.35 0.33 0.28 0.26 0.30 0.34 0.30 0.27 0.38 0.55 0.62 0.76 0.83 0.57 0.38 0.38 0.34 0.27 0.18
0.09 0.09 0.09 0.07 0.08 0.08 0.12 0.12 0.11 0.11 0.09 0.09 0.08 0.09 0.09 0.09 0.10 0.12 0.16 0.17 0.15 0.14 0.12 0.12 0.12 0.12 0.12 0.12 0.12 0.15 0.17 0.18 0.19 0.19 0.19 0.21 0.21 0.19 0.18 0.17 0.15 0.15 0.15 0.13 0.13 0.12 0.12 0.10 0.11 0.13 0.13 0.21 0.22 0.16 0.20 0.31 0.49 0.59 0.78 0.66 0.67 0.67 0.60 0.46 0.43 0.44 0.44 0.37 0.32 0.28 0.29 0.33 0.49 0.57 0.59 0.64 0.72 1.02 0.85 0.73 0.56 0.52 0.45 0.29 0.17
0.11 0.10 0.07 0.09 0.08 0.14 0.17 0.10 0.10 0.10 0.09 0.08 0.08 0.10 0.10 0.11 0.14 0.18 0.18 0.16 0.14 0.12 0.12 0.12 0.12 0.11 0.11 0.11 0.12 0.15 0.19 0.18 0.19 0.21 0.21 0.19 0.17 0.17 0.15 0.15 0.15 0.13 0.14 0.13 0.11 0.10 0.12 0.12 0.15 0.15 0.23 0.27 0.31 0.34 0.24 0.26 0.32 0.40 0.56 0.72 0.59 0.49 0.43 0.46 0.47 0.47 0.42 0.38 0.33 0.28 0.29 0.25 0.31 0.47 0.62 0.78 0.80 0.98 1.04 0.84 0.78 0.59 0.35 0.19 0.26
0.09 0.11 0.09 0.08 0.13 0.15 0.10 0.09 0.11 0.11 0.10 0.09 0.10 0.12 0.13 0.17 0.22 0.19 0.16 0.14 0.13 0.13 0.13 0.12 0.10 0.10 0.10 0.11 0.13 0.16 0.19 0.20 0.17 0.16 0.17 0.17 0.16 0.15 0.15 0.16 0.17 0.18 0.17 0.15 0.13 0.14 0.15 0.16 0.23 0.20 0.23 0.20 0.19 0.20 0.19 0.16 0.19 0.29 0.46 0.70 0.55 0.44 0.41 0.46 0.52 0.47 0.41 0.37 0.35 0.32 0.28 0.25 0.30 0.47 0.54 0.73 0.97 0.89 1.10 0.99 0.78 0.72 0.74 0.62 0.56
0.07 0.07 0.07 0.14 0.19 0.12 0.10 0.11 0.11 0.10 0.09 0.09 0.12 0.16 0.20 0.23 0.20 0.17 0.14 0.14 0.14 0.13 0.12 0.10 0.09 0.10 0.11 0.13 0.15 0.18 0.20 0.18 0.16 0.15 0.18 0.18 0.16 0.15 0.14 0.17 0.19 0.20 0.19 0.16 0.15 0.18 0.19 0.22 0.17 0.14 0.15 0.17 0.17 0.18 0.15 0.16 0.16 0.22 0.38 0.53 0.61 0.56 0.56 0.51 0.53 0.50 0.39 0.33 0.31 0.34 0.32 0.33 0.42 0.57 0.79 0.87 1.01 1.07 0.91 0.93 1.24 0.99 0.84 0.75 0.71
0.07 0.09 0.09 0.16 0.11 0.09 0.10 0.11 0.10 0.09 0.10 0.11 0.15 0.22 0.25 0.20 0.18 0.15 0.16 0.16 0.14 0.12 0.10 0.09 0.09 0.10 0.12 0.13 0.15 0.16 0.16 0.17 0.19 0.19 0.18 0.18 0.16 0.15 0.14 0.15 0.17 0.19 0.19 0.18 0.15 0.18 0.18 0.17 0.17 0.18 0.19 0.18 0.17 0.19 0.16 0.16 0.18 0.22 0.33 0.52 0.56 0.62 0.61 0.50 0.42 0.37 0.34 0.32 0.30 0.29 0.30 0.40 0.63 0.72 0.89 0.90 0.93 0.96 0.90 1.00 1.12 1.13 1.12 1.07 0.84
0.08 0.09 0.09 0.08 0.09 0.09 0.10 0.10 0.08 0.09 0.10 0.13 0.19 0.26 0.21 0.20 0.17 0.16 0.18 0.17 0.14 0.11 0.10 0.10 0.10 0.11 0.12 0.12 0.12 0.13 0.15 0.15 0.14 0.15 0.18 0.16 0.15 0.15 0.15 0.12 0.15 0.16 0.19 0.20 0.18 0.16 0.18 0.21 0.24 0.27 0.24 0.19 0.19 0.19 0.18 0.19 0.20 0.25 0.34 0.47 0.47 0.51 0.49 0.44 0.45 0.36 0.31 0.29 0.30 0.40 0.47 0.52 0.59 0.70 0.76 0.74 0.84 0.71 0.79 0.78 0.71 0.78 0.85 0.80 0.90
0.09 0.09 0.08 0.08 0.08 0.09 0.10 0.10 0.09 0.09 0.11 0.16 0.20 0.19 0.22 0.22 0.17 0.17 0.17 0.15 0.13 0.12 0.11 0.11 0.11 0.11 0.11 0.11 0.12 0.11 0.13 0.13 0.12 0.13 0.15 0.15 0.15 0.15 0.16 0.15 0.17 0.19 0.19 0.22 0.21 0.20 0.24 0.28 0.32 0.30 0.30 0.24 0.22 0.22 0.20 0.21 0.27 0.29 0.29 0.34 0.34 0.32 0.35 0.38 0.40 0.32 0.27 0.27 0.34 0.42 0.46 0.47 0.50 0.53 0.57 0.73 0.75 0.49 0.45 0.59 0.66 0.68 0.72 0.78 0.75
0.11 0.08 0.08 0.09 0.09 0.11 0.12 0.11 0.11 0.11 0.15 0.18 0.15 0.16 0.17 0.17 0.18 0.18 0.15 0.14 0.14 0.13 0.12 0.11 0.10 0.11 0.11 0.11 0.12 0.13 0.13 0.13 0.12 0.12 0.13 0.14 0.13 0.14 0.16 0.18 0.21 0.24 0.24 0.23 0.24 0.29 0.35 0.38 0.41 0.32 0.28 0.23 0.23 0.23 0.22 0.26 0.27 0.31 0.30 0.30 0.31 0.28 0.31 0.34 0.38 0.36 0.35 0.31 0.32 0.40 0.44 0.46 0.44 0.47 0.55 0.55 0.46 0.50 0.53 0.58 0.55 0.57 0.57 0.59 0.58
0.08 0.07 0.08 0.09 0.10 0.12 0.13 0.12 0.13 0.15 0.18 0.16 0.16 0.16 0.15 0.16 0.17 0.16 0.15 0.16 0.15 0.14 0.13 0.11 0.10 0.11 0.12 0.12 0.13 0.13 0.13 0.13 0.14 0.15 0.16 0.14 0.11 0.12 0.16 0.20 0.25 0.34 0.42 0.40 0.43 0.50 0.53 0.56 0.56 0.43 0.33 0.24 0.25 0.28 0.29 0.35 0.36 0.41 0.42 0.41 0.34 0.35 0.33 0.32 0.34 0.33 0.32 0.31 0.31 0.38 0.46 0.51 0.52 0.56 0.47 0.44 0.53 0.60 0.59 0.52 0.43 0.38 0.37 0.42 0.53
0.07 0.08 0.09 0.10 0.12 0.14 0.12 0.12 0.17 0.17 0.15 0.16 0.16 0.14 0.14 0.16 0.17 0.16 0.17 0.18 0.18 0.14 0.12 0.10 0.10 0.11 0.11 0.12 0.14 0.13 0.13 0.13 0.13 0.14 0.17 0.18 0.16 0.16 0.21 0.22 0.18 0.26 0.47 0.79 1.04 0.83 0.81 0.72 0.58 0.55 0.49 0.40 0.35 0.42 0.43 0.37 0.42 0.46 0.52 0.52 0.48 0.44 0.44 0.38 0.32 0.36 0.35 0.35 0.36 0.42 0.41 0.39 0.43 0.46 0.42 0.42 0.44 0.44 0.45 0.49 0.48 0.41 0.38 0.40 0.42
0.07 0.08 0.08 0.09 0.11 0.12 0.13 0.16 0.17 0.15 0.16 0.17 0.14 0.14 0.15 0.15 0.16 0.17 0.18 0.20 0.19 0.18 0.15 0.12 0.11 0.12 0.11 0.13 0.14 0.12 0.12 0.12 0.13 0.13 0.13 0.14 0.17 0.21 0.24 0.32 0.31 0.25 0.32 0.55 0.86 1.01 0.96 0.86 0.77 0.57 0.49 0.62 0.64 0.52 0.50 0.64 0.74 0.65 0.57 0.53 0.54 0.60 0.53 0.41 0.38 0.38 0.35 0.32 0.35 0.36 0.36 0.37 0.41 0.44 0.47 0.48 0.50 0.48 0.44 0.44 0.49 0.45 0.42 0.38 0.37
0.08 0.10 0.10 0.11 0.11 0.11 0.15 0.16 0.15 0.16 0.18 0.15 0.14 0.14 0.15 0.15 0.16 0.16 0.18 0.20 0.20 0.22 0.18 0.14 0.13 0.13 0.13 0.15 0.15 0.13 0.12 0.13 0.14 0.14 0.13 0.13 0.12 0.13 0.19 0.25 0.25 0.25 0.30 0.54 0.68 0.77 0.81 0.74 0.89 0.89 0.54 0.42 0.44 0.45 0.55 0.71 0.74 0.68 0.50 0.50 0.50 0.44 0.39 0.37 0.35 0.40 0.35 0.31 0.32 0.33 0.36 0.34 0.40 0.41 0.40 0.43 0.44 0.44 0.45 0.45 0.48 0.50 0.50 0.50 0.48